Terminal Aerodrome Forecast
Issued by NWS Grand Junction, CO

Home | Current Version | Previous Version | Text Only | Print | Product List | Glossary On
Versions: 1 2 3 4 5 6 7 8 9 10 11 12 13 14 15 16 17 18 19 20 21 22 23 24 25 26 27 28 29 30 31 32 33 34 35 36 37 38 39 40 41 42 43 44 45 46 47 48 49 50
000
FTUS45 KGJT 241139
TAFGJT
TAFGJT
TAF
KGJT 241139Z 2412/2512 11008KT P6SM OVC080
     FM241400 13005KT P6SM VCSH OVC060
     FM241800 02005KT P6SM VCTS SCT070CB OVC090
      TEMPO 2420/2424 VRB15G25KT -SHRA BKN060
     FM250200 10006KT P6SM BKN080=

USA.gov is the U.S. government's official web portal to all federal, state and local government web resources and services.